Regional Weather Roundup
Issued by NWS State College, PA

Home | Current Version | Previous Version | Graphics & Text | Print | Product List | Glossary Off
Versions: 1 2 3 4 5 6 7 8 9 10 11 12 13 14 15 16 17 18 19 20 21 22 23 24 25 26 27 28 29 30 31 32 33 34 35 36 37 38 39 40 41 42 43 44 45 46 47 48 49 50

000
ASUS41 KCTP 230310
RWRCTP

REGIONAL WEATHER ROUNDUP
NATIONAL WEATHER SERVICE STATE COLLEGE PA
1100 PM EDT SUN APR 22 2018

Note: "fair" indicates few or no clouds below 12,000 feet with no
significant weather and/or obstructions to visibility.

* = STATION THAT DOES NOT REPORT PRECIPITATION /E.G. RAIN...SNOW...ETC/
    THUNDER OR FOG.

PAZ002>004-007>009-013>016-020>023-029>032-230400-
WESTERN PENNSYLVANIA

CITY           SKY/WX    TMP DP  RH WIND       PRES   REMARKS
ERIE           FAIR      50  23  34 E12       30.32F
MEADVILLE      FAIR      50  23  34 E7        30.31S
FRANKLIN*      FAIR      51  18  27 NE5       30.31S
NEW CASTLE     FAIR      55  21  26 E6        30.29S
BEAVER COUNTY  NOT AVBL
BUTLER*        FAIR      55  29  36 E9        30.30R
PITTSBURGH INT FAIR      57  30  35 E9        30.27R
PITTSBURGH     FAIR      55  32  41 E7        30.27S
INDIANA*       CLEAR     54  28  37 E5        30.35S
LATROBE        FAIR      57  32  38 E9        30.30S
WASHINGTON CO* FAIR      56  34  43 E7        30.29S
$$

PAZ004>006-010>012-017>019-024>028-033>037-041-042-045-046-049>053-230400-
CENTRAL PENNSYLVANIA

CITY           SKY/WX    TMP DP  RH WIND       PRES   REMARKS
BRADFORD       FAIR      46  17  31 E7        30.36S
DUBOIS         FAIR      50  23  34 SE8       30.32S
CLEARFIELD     FAIR      45  24  43 N6        30.35R
JOHNSTOWN      FAIR      50  31  48 SE5       30.32S
ALTOONA        FAIR      53  30  41 E5        30.35S
STATE COLLEGE  FAIR      51  24  34 N5        30.37R
WILLIAMSPORT   FAIR      46  26  45 CALM      30.38R
SELINSGROVE    FAIR      43  31  62 CALM      30.38R
FT INDIANTOWN  FAIR      47  31  53 CALM      30.37R
CAPITAL CITY   FAIR      54  37  52 CALM      30.37R
HARRISBURG     FAIR      50  34  54 CALM      30.36S
YORK           FAIR      43  36  76 CALM      30.37S
$$

PAZ038>040-043-044-047-048-054-055-060>062-067>071-230400-
EASTERN PENNSYLVANIA

CITY           SKY/WX    TMP DP  RH WIND       PRES   REMARKS
SCRANTON       FAIR      48  21  34 E6        30.38R
MOUNT POCONO   FAIR      45  16  31 N8        30.37S
ALLENTOWN      FAIR      57  24  28 W5        30.37R
QUAKERTOWN*    CLEAR     43  30  61 CALM      30.38R
READING        FAIR      51  32  48 CALM      30.36S
LANCASTER      FAIR      50  30  46 CALM      30.37S
COATESVILLE    FAIR      52  30  43 CALM      30.39S
POTTSTOWN      FAIR      48  29  47 CALM      30.39R
BLUE BELL      FAIR      50  30  46 CALM      30.40R
DOYLESTOWN     FAIR      50  27  40 SE6       30.37R
WILLOW GROVE   NOT AVBL
NORTH PHILA    FAIR      54  32  43 SW8       30.40R
PHILADELPHIA   FAIR      50  34  54 S6        30.40S
$$




USA.gov is the U.S. government's official web portal to all federal, state and local government web resources and services.